OBJECT AC, 61761

Orbit data source: Space-Track

You're viewing an Uncataloged Satellite

Recently launched and/or uncataloged satellites may have evolving metadata. Metadata may include but not limited to: Owner, Maufacturer, Bus, Motor, and Mission.

OBJECT AC, 61761 is a satellite in SSO that was launched on Mon, 04 Nov 2024 UTC via a SOYUZ-2-1B launch vehicle from the Vostochny Cosmodrome (VOSTO). Unknown objects in Earth's orbit typically refer to objects detected orbiting the Earth but have not yet been identified or cataloged. These objects could be anything from previously untracked satellites, spent rocket stages, debris from satellite collisions, or even natural meteoroids temporarily captured by Earth's gravity.

Loading next visibility...
Identifier
61761, 2024-199AC
Orbit
SSO
Country
Flag of TBDTBD
Related business
None
Manufacturer
STTS/SPBPU
Mission
Operational Commercial Technology
Bus & Motor
CUBESAT 3U, Unknown motor
Mass
3 kg wet, 3 kg dry
Launch date (UTC)
2024-11-04 (10 months ago)
Launch vehicle
SOYUZ-2-1B
Launch site
Vostochny Cosmodrome (VOSTO)
Object type
Unknown
Shape & HBR
Box, 0.1 m
Radar Cross Section
0.035 m², Small (<0.1 m²)

Expand to show TLE details & history
Last TLE update: 14 hours ago

TLE from 14 hours ago
0 OBJECT AC
1 61761U 24199AC  25260.26108192  .00016353  00000-0  44213-3 0  9995
2 61761  97.3367 128.9539 0008512 177.4295 182.6995 15.37762489 95417
Epoch: 2025-09-17T06:15Z
TLE epoch observation values (Epoch: 2025-09-17T06:15:57.477Z)
Latitude
-0.00007°
Longitude
38.52485°
Altitude
461.653 km
Speed
7.633 km/s
True Right ascension
08h 35m 48s
True Declination
0° 00' 00"
Sunlit
Object was in daylight at epoch
Visualization orbit readout
Latitude
Unknown
Longitude
Unknown
Altitude
Unknown
Speed
Unknown
Apparent Right ascension
Unknown
Apparent Declination
Unknown
Sunlit
N/A
Visualization observer readout
Local Sidereal Time
13:08:19
Azimuth
Unknown
Elevation
Unknown
Doppler factor
Unknown
Orbital elements
Apogee altitude
455.478 km
Perigee altitude
443.855 km
Semi-major axis
6,827.804 km
Eccentricity
0.00085
Inclination
97.3367°
RAAN
128.9539°
Arg. of periapsis
177.4295°
True anomaly
182.69491°
Mean anomaly
182.6995°
Eccentric anomaly
182.6972°
Mean motion
3.847 °/min
Orbital period
93.58 mins
BSTAR
0.00044213
Loading maneuver chart data...
Computing Atmospheric mass density...
Loading historical data...
Loading historical data...
Loading historical data...
Loading historical data...
Loading historical data...
Loading historical data...
Loading historical data...

Documentation

Showing up to 5 results
|